User: anonymous   Login
Location: Powder Track
(41.8531°N, 72.3584°W)
Time: 08:35:07
(UTC+00:00)
Language:

Transit 2A - Orbit

View from above orbital plane
View from above orbital plane
View from above satellite
View from above satellite

Ground track
Ground track

The orbit data is extracted from the following two-line orbital elements,

1 00045U 60007A   21204.91145685 -.00000043  00000-0  16224-4 0  9997
2 00045  66.6949  42.9424 0252423  21.8273 339.3354 14.33727711123380
Epoch (UTC): 23 July 2021 21:52:29
Eccentricity: 0.0252423
inclination: 66.6949°
perigee height: 598 km
apogee height: 960 km
right ascension of ascending node: 42.9424°
argument of perigee: 21.8273°
revolutions per day: 14.33727711
mean anomaly at epoch: 339.3354°
orbit number at epoch: 12338

The dashed part of the orbit path shows where the satellite is in the earth's shadow,  

DLR